This demonstration page uses our WeatherBlox Daily Observations layout. Learn more.

Left ArrowRight Arrow

Hourly Observations for October 14, 2016

Temp ( °F °C ) Dew Point ( °F °C ) Humidity (%) Winds ( mph kmh ) Pressure ( in mb ) Visibility ( mi km ) Precip ( " mm )
12:53 am 00:53 Mostly Clear 35 1.7 32 0 89 89 S 10 17 29.61 1003 10 16 0.00 0.00
1:53 am 01:53 Mostly Clear 36 2.2 33 0.6 89 89 S 9 15 29.60 1002 10 16 0.00 0.00
2:53 am 02:53 Clear 34 1.1 32 0 92 92 SSE 5 7 29.57 1001 10 16 0.00 0.00
3:53 am 03:53 Clear 33 0.6 31 -0.6 92 92 E 5 7 29.55 1001 10 16 0.00 0.00
4:53 am 04:53 Clear 33 0.6 31 -0.6 92 92 ENE 3 6 29.53 1000 10 16 0.00 0.00
5:53 am 05:53 Partly Cloudy 35 1.7 32 0 89 89 E 7 11 29.50 999 10 16 0.00 0.00
6:53 am 06:53 Cloudy with Light Rain 35 1.7 32 0 89 89 ENE 3 6 29.49 999 10 16 0.00 0.03
7:53 am 07:53 Cloudy 35 1.7 32 0 89 89 ENE 7 11 29.46 998 10 16 0.00 0.03
8:53 am 08:53 Mostly Cloudy 35 1.7 33 0.6 93 93 E 8 13 29.44 997 10 16 0.00 0.00
9:53 am 09:53 Mostly Cloudy 36 2.2 33 0.6 89 89 E 5 7 29.42 996 10 16 0.00 0.00
10:53 am 10:53 Sunny 39 3.9 34 1.1 82 82 ENE 5 7 29.43 997 10 16 0.00 0.00
11:53 am 11:53 Mostly Cloudy 38 3.3 34 1.1 86 86 Calm 29.44 997 10 16 0.00 0.00
12:53 pm 12:53 Cloudy 38 3.3 35 1.7 89 89 SSW 6 9 29.47 998 10 16 0.00 0.03
1:53 pm 13:53 Cloudy 40 4.4 36 2.2 86 86 SSW 6 9 29.47 998 10 16 0.00 0.00
2:53 pm 14:53 Mostly Sunny 49 9.4 40 4.4 71 71 SW 14 22 29.49 999 10 16 0.00 0.00
3:53 pm 15:53 Sunny 49 9.4 39 3.9 69 69 WSW 23 37 29.48 998 10 16 0.00 0.00
4:53 pm 16:53 Sunny 49 9.4 38 3.3 66 66 NNE 5 7 29.53 1000 10 16 0.00 0.00
5:53 pm 17:53 Sunny 51 10.6 41 5 69 69 SSW 9 15 29.54 1000 10 16 0.00 0.00
6:53 pm 18:53 Clear 45 7.2 38 3.3 77 77 SSW 12 19 29.56 1001 10 16 0.00 0.00
7:53 pm 19:53 Clear 48 8.9 37 2.8 66 66 WSW 16 26 29.60 1002 10 16 0.00 0.00
8:53 pm 20:53 Clear 45 7.2 37 2.8 74 74 SSW 15 24 29.61 1003 10 16 0.00 0.00
9:53 pm 21:53 Clear 42 5.6 36 2.2 79 79 SSW 14 22 29.60 1003 10 16 0.00 0.00
10:53 pm 22:53 Clear 43 6.1 35 1.7 74 74 SW 17 28 29.60 1002 10 16 0.00 0.00
11:53 pm 23:53 Clear 42 5.6 35 1.7 76 76 SW 18 30 29.61 1003 10 16 0.00 0.00

Powered by AerisWeather